Fort Eustis, VA

2:17 AM EDT on September 26, 2017 (GMT -0400)
Felker Army Air Field

Weather History for KFAF - October, 2013

Change the Weather History Date:

Wednesday, October 9, 2013

  Actual Average Record
Temperature  
Mean Temperature 62 °F -  
Max Temperature 63 °F 71 °F 91 °F (2007)
Min Temperature 59 °F 53 °F 35 °F (2001)
Degree Days  
Heating Degree Days 4    
Growing Degree Days 12 (Base 50)    
Moisture  
Dew Point 57 °F    
Average Humidity 87    
Maximum Humidity 94    
Minimum Humidity 65    
Precipitation  
Precipitation 2.01 in - - ()
Sea Level Pressure  
Sea Level Pressure 30.12 in    
Wind  
Wind Speed 9 mph (NNE)    
Max Wind Speed 17 mph    
Max Gust Speed 24 mph    
Visibility 7 miles    
Events Rain    
Averages and records for this station are not official NWS values.
T = Trace of Precipitation, MM = Missing Value Source: NWS Daily Summary

Daily Weather History Graph

Daily Weather History Graph

Search for Another Location

Airport or City:

Trip Planner

Search our weather history database for the weather conditions in past years. The results will help you decide how hot, cold, wet, or windy it might be!

Date:

Astronomy

Oct. 09, 2013 Rise Set
Actual Time 7:08 AM EDT 6:37 PM EDT
Civil Twilight 6:42 AM EDT 7:03 PM EDT
Nautical Twilight 6:12 AM EDT 7:33 PM EDT
Astronomical Twilight 5:42 AM EDT 8:03 PM EDT
Moon 11:56 AM EDT (10/9) 10:15 PM EDT (10/9)
Length of Visible Light 12h 20m
Length of Day
11h 28m
Waxing Crescent, 25% of the Moon is Illuminated
Oct 9
Waxing Crescent
Oct 11
First Quarter
Oct 18
Full
Oct 26
Last Quarter
Nov 3
New

Hourly Weather History & Observations

Time (EDT) Temp. Dew Point Humidity Pressure Visibility Wind Dir Wind Speed Gust Speed Precip Events Conditions
12:58 AM 63.1 °F 51.3 °F 65% 30.19 in 10.0 mi NE 8.1 mph - N/A   Clear
1:58 AM 63.5 °F 51.8 °F 66% 30.19 in 10.0 mi NE 8.1 mph - N/A   Scattered Clouds
2:58 AM 63.3 °F 52.7 °F 68% 30.17 in 10.0 mi NE 4.6 mph - N/A   Overcast
3:58 AM 63.1 °F 53.4 °F 71% 30.16 in 10.0 mi Variable 5.8 mph - N/A   Mostly Cloudy
4:58 AM 62.8 °F 54.3 °F 74% 30.15 in 10.0 mi NNE 6.9 mph - N/A   Clear
5:28 AM 62.6 °F 55.4 °F 77% 30.14 in 10.0 mi NNE 6.9 mph - N/A   Mostly Cloudy
5:33 AM 62.6 °F 55.4 °F 77% 30.14 in 10.0 mi NE 8.1 mph - N/A   Scattered Clouds
5:48 AM 62.6 °F 55.4 °F 77% 30.16 in 10.0 mi NNE 5.8 mph - N/A   Mostly Cloudy
5:58 AM 62.8 °F 54.9 °F 75% 30.16 in 10.0 mi NNE 6.9 mph - N/A   Mostly Cloudy
6:08 AM 62.6 °F 55.4 °F 77% 30.15 in 10.0 mi NE 5.8 mph - N/A   Overcast
6:13 AM 62.6 °F 55.4 °F 77% 30.14 in 10.0 mi NNE 5.8 mph - N/A   Overcast
6:21 AM 62.6 °F 55.4 °F 77% 30.14 in 10.0 mi NNE 8.1 mph - N/A   Light Drizzle
6:31 AM 62.6 °F 55.4 °F 77% 30.14 in 10.0 mi NE 5.8 mph - N/A Rain Light Rain
6:51 AM 62.6 °F 57.2 °F 82% 30.14 in 10.0 mi NNE 5.8 mph - N/A   Heavy Drizzle
6:58 AM 62.4 °F 56.7 °F 81% 30.15 in 10.0 mi NE 5.8 mph - 0.01 in   Heavy Drizzle
7:13 AM 62.6 °F 57.2 °F 82% 30.14 in 10.0 mi NNE 6.9 mph - N/A   Light Drizzle
7:17 AM 62.6 °F 57.2 °F 82% 30.14 in 10.0 mi NNE 5.8 mph - N/A   Scattered Clouds
7:47 AM 62.6 °F 57.2 °F 82% 30.16 in 10.0 mi NE 9.2 mph - N/A   Mostly Cloudy
7:58 AM 63.7 °F 57.2 °F 79% 30.17 in 10.0 mi NNE 8.1 mph - 0.00 in   Mostly Cloudy
8:06 AM 64.4 °F 57.2 °F 77% 30.16 in 10.0 mi NE 8.1 mph 20.7 mph N/A   Light Drizzle
8:58 AM 63.3 °F 57.2 °F 80% 30.17 in 10.0 mi NE 10.4 mph - 0.00 in Rain Light Rain
9:03 AM 62.6 °F 57.2 °F 82% 30.17 in 10.0 mi NE 9.2 mph - N/A Rain Light Rain
9:58 AM 62.2 °F 57.4 °F 84% 30.18 in 10.0 mi NE 10.4 mph 16.1 mph 0.03 in Rain Light Rain
10:18 AM 62.6 °F 57.2 °F 82% 30.16 in 6.0 mi NNE 8.1 mph - N/A Rain Rain
10:38 AM 60.8 °F 59.0 °F 94% 30.16 in 5.0 mi NE 8.1 mph 18.4 mph N/A Rain Rain
10:43 AM 60.8 °F 59.0 °F 94% 30.16 in 5.0 mi NNE 8.1 mph - N/A Rain Rain
10:48 AM 60.8 °F 59.0 °F 94% 30.16 in 4.0 mi NE 9.2 mph - N/A Rain Rain
10:58 AM 61.5 °F 58.3 °F 89% 30.17 in 5.0 mi NE 6.9 mph - 0.15 in Rain Rain
11:23 AM 60.8 °F 59.0 °F 94% 30.15 in 7.0 mi NNE 8.1 mph - N/A Rain Rain
11:58 AM 61.2 °F 58.3 °F 90% 30.16 in 7.0 mi Variable 6.9 mph - 0.12 in Rain Rain
12:23 PM 60.8 °F 59.0 °F 94% 30.15 in 6.0 mi NNE 9.2 mph - N/A Rain Rain
12:28 PM 60.8 °F 57.2 °F 88% 30.15 in 8.0 mi NNE 9.2 mph - N/A Rain Light Rain
12:33 PM 60.8 °F 57.2 °F 88% 30.15 in 10.0 mi NNE 11.5 mph 17.3 mph N/A Rain Light Rain
12:58 PM 61.2 °F 57.9 °F 89% 30.16 in 7.0 mi NNE 11.5 mph 18.4 mph 0.09 in Rain Rain
1:33 PM 60.8 °F 57.2 °F 88% 30.13 in 8.0 mi North 10.4 mph 19.6 mph N/A Rain Rain
1:38 PM 60.8 °F 57.2 °F 88% 30.13 in 9.0 mi North 13.8 mph 23.0 mph N/A Rain Rain
1:43 PM 60.8 °F 57.2 °F 88% 30.13 in 9.0 mi North 10.4 mph 23.0 mph N/A Rain Rain
1:58 PM 61.2 °F 58.3 °F 90% 30.13 in 9.0 mi NNE 15.0 mph 20.7 mph 0.10 in Rain Rain
2:13 PM 60.8 °F 57.2 °F 88% 30.12 in 6.0 mi North 12.7 mph 19.6 mph N/A Rain Rain
2:18 PM 60.8 °F 59.0 °F 94% 30.11 in 6.0 mi North 15.0 mph 23.0 mph N/A Rain Rain
2:28 PM 60.8 °F 59.0 °F 94% 30.10 in 7.0 mi North 15.0 mph 23.0 mph N/A Rain Rain
2:58 PM 61.5 °F 58.3 °F 89% 30.11 in 9.0 mi North 16.1 mph 23.0 mph 0.08 in Rain Rain
3:08 PM 60.8 °F 59.0 °F 94% 30.11 in 2.0 mi NNE 9.2 mph 21.9 mph N/A Rain Heavy Rain
3:13 PM 60.8 °F 57.2 °F 88% 30.10 in 1.5 mi North 11.5 mph 20.7 mph N/A Rain Heavy Rain
3:18 PM 60.8 °F 59.0 °F 94% 30.10 in 2.0 mi NNE 11.5 mph 20.7 mph N/A Rain Heavy Rain
3:23 PM 60.8 °F 59.0 °F 94% 30.10 in 3.0 mi NNE 15.0 mph 23.0 mph N/A Rain Heavy Rain
3:33 PM 60.8 °F 59.0 °F 94% 30.10 in 4.0 mi North 12.7 mph 20.7 mph N/A Rain Rain
3:58 PM 61.2 °F 58.3 °F 90% 30.11 in 6.0 mi NNE 10.4 mph 21.9 mph 0.27 in Rain Rain
4:58 PM 60.6 °F 57.7 °F 90% 30.10 in 5.0 mi North 16.1 mph 23.0 mph 0.09 in Rain Light Rain
5:48 PM 60.8 °F 57.2 °F 88% 30.09 in 10.0 mi NNE 10.4 mph 21.9 mph N/A Rain Light Rain
5:58 PM 60.3 °F 57.4 °F 90% 30.10 in 7.0 mi NNE 12.7 mph 19.6 mph 0.03 in Rain Light Rain
6:03 PM 60.8 °F 57.2 °F 88% 30.09 in 4.0 mi North 12.7 mph 18.4 mph N/A Rain Rain
6:58 PM 60.1 °F 57.6 °F 91% 30.09 in 4.0 mi North 13.8 mph 21.9 mph 0.16 in Rain Heavy Rain
7:03 PM 60.8 °F 57.2 °F 88% 30.07 in 4.0 mi North 11.5 mph 21.9 mph N/A Rain Heavy Rain
7:08 PM 60.8 °F 57.2 °F 88% 30.07 in 4.0 mi NNE 15.0 mph 19.6 mph N/A Rain Heavy Rain
7:13 PM 60.8 °F 57.2 °F 88% 30.08 in 4.0 mi North 12.7 mph 19.6 mph N/A Rain Rain
7:18 PM 60.8 °F 57.2 °F 88% 30.08 in 5.0 mi North 10.4 mph 19.6 mph N/A Rain Heavy Rain
7:43 PM 59.0 °F 57.2 °F 94% 30.06 in 4.0 mi North 17.3 mph 23.0 mph N/A Rain Heavy Rain
7:53 PM 59.0 °F 57.2 °F 94% 30.06 in 5.0 mi North 11.5 mph 24.2 mph N/A Rain Rain
7:58 PM 59.5 °F 57.0 °F 91% 30.07 in 5.0 mi North 13.8 mph 24.2 mph 0.28 in Rain Rain
8:13 PM 59.0 °F 57.2 °F 94% 30.06 in 5.0 mi North 11.5 mph 18.4 mph N/A Rain Heavy Rain
8:18 PM 59.0 °F 57.2 °F 94% 30.06 in 4.0 mi North 16.1 mph 19.6 mph N/A Rain Heavy Rain
8:48 PM 59.0 °F 57.2 °F 94% 30.06 in 6.0 mi North 15.0 mph 23.0 mph N/A Rain Heavy Rain
8:53 PM 59.0 °F 57.2 °F 94% 30.06 in 5.0 mi NNE 11.5 mph 20.7 mph N/A Rain Rain
8:58 PM 59.5 °F 57.0 °F 91% 30.07 in 5.0 mi North 11.5 mph 20.7 mph 0.23 in Rain Rain
9:03 PM 59.0 °F 57.2 °F 94% 30.06 in 4.0 mi North 13.8 mph 20.7 mph N/A Rain Heavy Rain
9:08 PM 59.0 °F 57.2 °F 94% 30.06 in 4.0 mi North 13.8 mph 20.7 mph N/A Rain Heavy Rain
9:58 PM 60.1 °F 57.4 °F 91% 30.06 in 7.0 mi NNE 12.7 mph 18.4 mph 0.25 in Rain Rain
10:48 PM 60.8 °F 59.0 °F 94% 30.04 in 6.0 mi NNE 10.4 mph - N/A Rain Light Rain
10:58 PM 60.8 °F 58.3 °F 91% 30.05 in 6.0 mi North 8.1 mph - 0.07 in Rain Rain
11:03 PM 60.8 °F 59.0 °F 94% 30.04 in 6.0 mi NNE 12.7 mph - N/A Rain Rain
11:13 PM 60.8 °F 59.0 °F 94% 30.04 in 10.0 mi NNE 8.1 mph 17.3 mph N/A Rain Light Rain
11:58 PM 61.5 °F 59.2 °F 92% 30.03 in 7.0 mi NNE 10.4 mph 23.0 mph 0.05 in Rain Rain